Wind_Speed
7 8 7 6 8 10 11 10 11 11 12 15 15 18 22 20 20 20 20 19 20 21 22 24 25 26 28 29 31 32 34 36 37 39 39 39 40 40 40 40 39 39 38 37
9 9 7 5 7 9 10 11 13 14 17 16 16 20 21 19 18 17 18 18 18 20 21 22 23 25 26 29 31 32 34 35 36 37 39 40 40 40 39 39 39 38 38 37
11 8 6 7 10 10 12 13 14 15 15 16 18 23 23 16 14 13 15 17 18 19 20 21 23 25 27 29 31 33 34 35 37 38 39 40 41 40 41 40 40 39 39 38
10 8 7 8 11 10 11 12 13 15 16 19 21 24 21 18 14 11 13 16 18 19 21 23 25 27 29 30 32 33 35 37 39 40 40 40 41 42 42 42 41 41 40 40
5 6 7 9 10 9 10 11 12 15 19 22 23 22 20 16 13 12 15 17 19 21 22 24 26 28 29 31 33 35 36 38 39 40 41 42 42 43 44 44 44 43 43 42
5 5 6 8 9 9 10 13 14 17 19 20 19 18 16 15 15 15 17 20 22 23 24 26 28 29 31 33 35 36 37 38 39 41 42 43 44 45 45 46 46 46 45 45
4 4 4 7 9 10 9 12 16 18 19 17 13 11 12 13 16 18 20 23 24 25 27 29 30 32 34 35 36 37 38 39 40 42 43 44 45 46 46 47 47 48 48 47
8 8 7 9 9 9 9 11 16 19 22 21 15 14 15 14 16 19 23 25 26 28 30 31 33 34 35 37 38 39 40 41 42 43 44 45 46 46 46 47 48 48 49 48
9 9 8 10 10 11 10 10 12 14 15 18 21 22 18 18 22 24 25 26 28 29 32 33 34 36 37 39 40 41 42 43 43 44 44 44 44 45 45 46 47 47 48 49
10 9 8 10 10 12 12 11 11 12 13 14 21 23 22 22 24 24 25 27 29 31 33 35 36 38 39 40 41 43 44 44 44 44 43 44 44 44 45 45 46 47 47 48
9 9 7 8 10 10 11 12 13 13 12 11 16 24 25 25 24 25 26 28 30 32 34 36 37 39 40 42 43 43 44 44 44 44 44 44 44 44 45 45 46 46 47 48
9 8 9 12 12 8 9 11 12 13 12 11 12 22 25 27 26 26 28 30 32 33 35 37 38 39 41 42 43 44 44 44 45 45 44 44 44 45 46 46 47 48 49 50
9 8 8 13 13 8 10 11 12 12 11 10 11 20 26 27 27 28 29 31 33 35 36 38 39 41 42 43 44 44 44 45 45 45 45 45 46 47 47 48 48 49 50 50
9 8 7 9 11 11 13 13 13 13 12 12 14 19 25 26 27 28 30 32 34 36 38 40 41 42 44 45 45 45 45 46 46 46 46 47 47 48 48 48 49 49 50 49
8 8 7 7 9 10 12 12 13 14 15 15 18 21 25 26 28 29 31 33 35 37 39 41 42 44 45 46 46 46 46 46 46 46 46 47 47 47 48 48 48 48 48 47
9 8 8 7 9 11 12 14 15 17 18 18 20 22 26 27 29 31 32 33 35 37 40 42 43 45 46 47 47 47 46 47 46 46 46 46 47 47 46 47 46 46 45 45
10 9 8 7 9 12 13 15 19 19 19 21 23 24 26 27 30 31 32 34 36 39 41 43 45 46 47 47 48 48 47 47 46 45 45 46 46 46 46 46 45 44 42 41
10 10 10 8 9 13 15 17 19 20 21 22 24 25 27 29 32 34 34 36 38 41 43 45 47 47 47 48 48 48 47 46 45 45 45 45 46 46 45 44 42 41 39 38
12 12 12 11 9 12 18 20 20 22 23 23 23 25 27 28 31 36 37 39 40 42 44 46 48 48 48 49 48 47 46 45 45 44 45 45 46 44 43 42 40 38 37 35
15 14 14 13 13 14 19 21 21 24 27 25 26 27 29 30 31 34 37 38 40 43 45 47 48 48 48 49 48 47 45 45 44 44 45 45 44 43 42 40 38 36 34 33
19 17 15 15 15 17 23 23 24 25 28 28 29 30 30 31 32 34 37 39 41 43 45 48 49 49 48 48 47 46 45 44 43 44 44 44 43 42 40 38 36 34 32 30
18 18 19 19 18 21 25 27 26 26 27 28 29 30 31 32 33 35 37 40 42 44 46 48 48 48 48 48 47 45 44 43 43 43 43 43 43 42 39 37 34 33 31 29
18 18 20 22 23 25 25 27 28 27 27 28 29 30 31 32 34 36 38 41 42 44 46 47 48 48 48 48 47 45 43 43 42 42 42 42 42 41 38 35 33 32 31 28
21 24 22 22 23 27 27 27 27 27 27 28 29 30 31 32 34 36 39 41 43 45 46 47 47 47 47 47 46 44 42 42 41 41 41 42 42 40 37 35 32 31 30 28
22 25 26 25 24 26 27 28 28 28 28 29 30 30 31 33 35 37 39 42 44 45 46 46 46 47 47 46 45 43 41 41 41 40 40 41 41 39 36 34 32 30 28 27
21 23 25 26 27 27 28 28 28 28 28 29 30 31 32 34 36 38 40 43 44 44 45 45 46 47 47 46 45 43 41 40 40 39 39 40 40 37 35 34 32 30 28 25
Wind_Direction
328 314 311 316 292 281 289 279 280 264 259 267 267 270 273 277 276 281 287 287 287 286 284 283 283 284 285 286 286 287 287 287 288 290 290 290 291 292 292 290 291 291 291 290
306 308 309 291 286 277 274 271 269 262 267 271 273 269 266 270 269 279 291 293 292 291 289 288 288 288 288 288 288 288 290 290 291 291 291 290 290 291 291 291 290 290 290 288
290 282 293 288 281 275 272 263 261 268 277 277 272 269 266 273 281 291 299 301 299 297 295 294 293 293 294 293 292 292 292 293 293 293 292 291 291 292 292 292 291 290 289 288
297 309 311 294 287 279 274 268 266 273 274 276 273 272 273 281 288 302 305 306 305 304 301 299 298 298 298 297 296 296 296 296 296 296 296 295 294 293 293 292 291 289 288 287
284 307 311 304 299 293 286 274 274 274 271 269 271 277 274 295 307 319 324 319 313 311 309 308 306 304 303 301 301 300 300 299 298 298 297 296 295 295 294 293 291 290 288 285
259 266 288 306 311 304 301 299 294 288 283 271 272 280 293 322 329 329 330 324 319 317 316 314 311 310 308 306 305 304 303 302 301 300 298 297 296 295 294 293 292 290 288 285
312 288 281 305 310 299 293 299 304 309 306 303 298 282 298 329 335 333 330 325 322 319 318 316 314 313 311 310 309 308 306 305 304 302 300 299 297 296 295 293 292 290 288 286
341 334 316 306 306 308 312 316 318 324 327 325 322 317 326 337 337 333 328 325 323 321 319 318 317 317 316 315 313 312 310 308 306 304 302 300 298 297 295 293 292 290 289 286
315 308 310 311 318 315 315 310 311 317 323 329 329 327 332 340 335 328 325 324 325 323 321 321 321 320 319 317 315 314 312 310 308 306 304 302 300 299 297 295 294 291 289 287
306 307 313 323 328 318 316 313 310 311 317 329 329 329 331 329 326 325 324 324 325 324 322 323 322 321 320 319 317 315 314 312 311 309 307 305 302 301 299 297 295 293 290 288
293 296 304 299 296 301 309 308 308 310 311 320 325 315 319 321 323 325 325 325 325 325 324 324 323 322 322 321 319 318 316 314 312 310 309 306 304 302 300 297 295 293 291 288
291 288 282 281 276 287 308 311 313 315 319 326 324 310 315 319 324 327 327 326 326 326 326 326 325 325 324 323 321 319 317 315 313 311 309 307 305 303 301 298 296 293 291 288
299 294 299 312 313 329 332 323 320 318 323 322 318 310 312 317 325 327 327 327 326 327 328 328 328 327 326 325 322 320 319 317 315 313 311 309 307 305 303 301 298 295 292 289
302 298 297 316 330 327 321 320 319 317 315 307 301 302 306 314 322 324 326 327 328 329 330 329 329 329 328 327 325 323 321 319 317 315 313 311 309 307 305 303 300 297 294 291
306 301 295 298 308 308 309 314 316 316 314 312 310 311 310 318 322 324 327 328 329 330 330 330 330 330 330 329 327 325 322 320 318 317 315 313 311 309 308 306 303 299 297 293
306 304 301 299 303 311 316 315 315 316 317 317 316 313 315 320 321 324 328 328 329 330 332 332 332 331 331 330 329 327 324 322 321 319 318 316 314 313 311 309 306 303 300 295
306 310 310 307 308 317 309 308 314 316 316 315 316 316 318 320 321 324 329 329 330 332 334 334 334 333 332 331 330 328 327 325 324 323 322 320 319 317 315 313 310 307 304 299
306 309 309 303 305 306 305 307 309 313 313 315 317 319 321 323 324 325 330 331 334 335 336 335 335 334 333 333 332 330 329 328 327 327 326 324 323 321 319 316 314 311 309 304
310 309 308 305 298 302 302 304 308 313 312 315 316 318 321 324 325 326 332 333 335 335 336 336 335 335 335 334 334 332 331 330 330 330 329 328 326 325 323 320 318 315 313 309
308 307 305 306 305 301 292 301 310 313 312 319 319 321 323 324 325 327 330 332 334 335 336 337 336 336 336 336 336 335 333 333 332 332 332 331 330 329 327 325 323 320 318 314
302 309 311 310 309 299 296 304 306 308 313 316 318 320 321 323 326 328 330 333 335 336 337 338 338 337 337 337 337 336 335 335 335 335 335 335 335 334 332 331 328 326 324 320
294 297 298 297 296 287 297 301 304 309 310 311 314 316 319 322 326 329 331 334 335 336 337 338 339 338 338 338 338 338 337 337 337 337 338 338 338 338 337 335 333 331 329 325
288 288 288 290 291 294 296 299 304 307 309 311 314 316 319 323 326 329 332 334 336 336 338 339 340 339 339 340 339 339 339 339 339 339 340 341 342 342 341 340 338 337 334 331
281 286 291 291 292 293 298 301 304 306 309 312 315 317 320 323 326 329 332 334 336 337 338 339 340 341 341 341 341 340 340 340 340 341 342 344 345 346 345 343 342 341 340 338
281 288 293 295 294 294 298 302 305 307 310 313 316 318 321 324 327 330 332 334 336 338 339 340 341 342 342 342 342 342 341 342 342 343 344 346 347 348 348 348 348 347 347 347
282 284 288 293 298 300 301 304 306 307 310 313 315 318 321 324 327 330 332 334 336 338 339 341 342 342 343 343 343 343 342 343 343 344 345 347 349 350 351 351 352 353 352 353
Height
5864 5865 5864 5865 5866 5866 5866 5867 5866 5865 5863 5865 5863 5862 5860 5858 5856 5854 5853 5853 5852 5851 5851 5849 5848 5847 5846 5844 5842 5840 5838 5836 5833 5830 5827 5824 5822 5819 5816 5814 5812 5810 5808 5805
5864 5865 5864 5863 5863 5863 5864 5865 5865 5863 5861 5861 5861 5857 5853 5853 5850 5849 5849 5849 5848 5847 5846 5845 5843 5842 5840 5838 5836 5834 5831 5829 5826 5822 5819 5816 5814 5811 5808 5806 5804 5802 5800 5798
5863 5863 5862 5863 5862 5862 5862 5862 5861 5859 5859 5859 5857 5852 5847 5847 5846 5846 5846 5845 5844 5843 5842 5840 5839 5837 5834 5832 5829 5827 5824 5821 5818 5814 5811 5808 5805 5802 5799 5797 5795 5793 5791 5790
5862 5862 5861 5862 5862 5861 5861 5860 5859 5857 5856 5853 5851 5846 5840 5841 5842 5841 5842 5842 5841 5839 5837 5835 5833 5831 5828 5825 5822 5819 5816 5813 5809 5806 5802 5799 5795 5793 5790 5787 5785 5784 5782 5780
5861 5861 5860 5861 5860 5859 5858 5858 5857 5855 5852 5849 5844 5840 5836 5835 5836 5839 5839 5838 5837 5835 5833 5830 5828 5825 5822 5818 5815 5811 5808 5804 5800 5796 5792 5789 5785 5782 5779 5776 5774 5772 5771 5769
5859 5859 5860 5860 5859 5858 5857 5855 5853 5851 5848 5845 5842 5839 5834 5833 5833 5834 5834 5835 5833 5831 5828 5825 5822 5819 5815 5811 5807 5803 5799 5796 5791 5787 5782 5778 5775 5771 5768 5765 5762 5760 5758 5757
5857 5857 5859 5859 5858 5857 5856 5855 5852 5848 5843 5840 5838 5835 5834 5831 5833 5833 5832 5831 5829 5826 5823 5820 5816 5813 5808 5804 5799 5795 5790 5786 5782 5777 5773 5768 5764 5760 5756 5753 5750 5747 5745 5744
5858 5858 5857 5857 5857 5856 5855 5854 5851 5848 5843 5837 5834 5832 5830 5831 5832 5831 5830 5828 5825 5822 5819 5815 5810 5806 5801 5796 5791 5786 5781 5776 5772 5767 5762 5757 5753 5748 5745 5741 5737 5734 5732 5730
5858 5858 5858 5857 5856 5855 5854 5853 5852 5849 5847 5843 5836 5833 5832 5832 5831 5830 5828 5826 5822 5818 5814 5810 5805 5799 5794 5789 5783 5777 5772 5767 5761 5756 5751 5746 5741 5737 5733 5729 5725 5721 5718 5715
5859 5858 5857 5856 5856 5855 5853 5851 5850 5848 5846 5845 5840 5835 5834 5833 5832 5829 5825 5823 5819 5815 5810 5804 5799 5793 5787 5781 5775 5769 5763 5757 5751 5745 5740 5734 5729 5725 5720 5716 5712 5708 5705 5702
5858 5857 5857 5855 5853 5852 5852 5850 5848 5846 5844 5844 5842 5838 5834 5831 5829 5827 5823 5819 5815 5810 5805 5799 5793 5787 5780 5774 5767 5760 5753 5747 5741 5734 5729 5723 5718 5713 5708 5704 5700 5696 5692 5688
5856 5856 5854 5851 5849 5849 5849 5848 5846 5845 5843 5842 5842 5838 5832 5829 5826 5823 5820 5815 5810 5805 5800 5793 5787 5780 5773 5766 5759 5752 5745 5738 5731 5724 5718 5712 5706 5701 5696 5691 5686 5681 5677 5674
5855 5854 5854 5852 5848 5848 5848 5847 5845 5844 5843 5841 5840 5838 5830 5826 5824 5820 5816 5811 5806 5800 5794 5787 5781 5774 5766 5759 5751 5743 5735 5728 5721 5714 5707 5701 5694 5688 5682 5677 5671 5666 5661 5657
5853 5853 5853 5853 5850 5849 5848 5846 5844 5843 5841 5840 5838 5835 5829 5825 5821 5817 5813 5807 5801 5794 5788 5781 5774 5766 5758 5750 5742 5734 5726 5718 5711 5703 5696 5689 5682 5675 5669 5662 5656 5651 5645 5640
5852 5851 5851 5850 5850 5849 5847 5845 5843 5841 5839 5837 5834 5831 5825 5822 5818 5813 5808 5802 5796 5789 5782 5775 5767 5759 5751 5742 5734 5725 5717 5708 5700 5693 5685 5677 5670 5662 5655 5648 5641 5635 5629 5623
5850 5850 5849 5848 5847 5846 5845 5843 5841 5838 5836 5833 5831 5827 5822 5818 5813 5809 5804 5797 5791 5784 5777 5768 5760 5752 5743 5734 5725 5716 5708 5699 5690 5682 5674 5666 5657 5649 5642 5634 5627 5620 5613 5607
5848 5848 5847 5846 5845 5844 5843 5841 5838 5836 5833 5830 5827 5824 5818 5814 5808 5803 5799 5792 5786 5778 5770 5762 5753 5744 5735 5726 5717 5708 5698 5690 5681 5672 5663 5654 5646 5637 5629 5621 5613 5606 5599 5593
5847 5846 5845 5844 5844 5842 5842 5838 5836 5833 5830 5827 5823 5818 5814 5809 5803 5797 5793 5786 5779 5772 5764 5755 5746 5737 5728 5718 5709 5699 5690 5681 5672 5663 5654 5645 5636 5627 5618 5609 5601 5593 5586 5580
5845 5844 5843 5842 5841 5840 5837 5834 5832 5829 5826 5823 5819 5815 5810 5805 5799 5791 5786 5780 5773 5765 5757 5749 5739 5730 5721 5711 5701 5692 5682 5673 5664 5655 5645 5636 5626 5617 5608 5599 5591 5583 5576 5569
5843 5842 5840 5839 5838 5837 5834 5831 5829 5826 5821 5818 5814 5810 5805 5801 5796 5790 5782 5775 5768 5760 5751 5742 5733 5723 5714 5704 5694 5685 5675 5666 5657 5648 5638 5628 5618 5608 5599 5590 5582 5574 5567 5560
5840 5838 5837 5836 5834 5833 5829 5827 5825 5823 5819 5814 5809 5805 5801 5796 5791 5785 5778 5770 5763 5754 5746 5736 5727 5717 5707 5698 5688 5678 5669 5660 5650 5641 5631 5621 5611 5601 5592 5583 5574 5567 5560 5553
5838 5836 5834 5832 5830 5830 5825 5822 5820 5818 5814 5809 5805 5801 5796 5791 5785 5779 5772 5765 5757 5749 5740 5731 5721 5711 5701 5692 5682 5673 5663 5654 5645 5635 5626 5616 5605 5595 5586 5577 5569 5561 5554 5547
5835 5834 5831 5829 5827 5824 5821 5817 5814 5812 5808 5804 5800 5796 5791 5785 5780 5774 5767 5760 5752 5743 5735 5725 5715 5706 5696 5686 5676 5667 5658 5649 5640 5630 5621 5611 5601 5591 5581 5572 5564 5556 5549 5542
5830 5827 5826 5824 5822 5818 5815 5812 5809 5806 5803 5799 5795 5790 5785 5780 5775 5768 5762 5754 5746 5738 5729 5720 5710 5701 5691 5681 5671 5662 5653 5644 5635 5626 5617 5607 5597 5587 5577 5568 5560 5553 5545 5538
5826 5823 5820 5818 5816 5813 5810 5807 5804 5800 5797 5793 5789 5784 5780 5775 5769 5763 5756 5749 5741 5733 5724 5715 5705 5696 5686 5676 5667 5658 5649 5640 5631 5622 5613 5604 5594 5584 5575 5566 5558 5550 5543 5536
5820 5818 5816 5813 5810 5807 5804 5801 5798 5795 5791 5788 5783 5779 5774 5769 5763 5757 5750 5743 5735 5727 5719 5710 5700 5691 5682 5672 5663 5654 5645 5636 5628 5619 5610 5601 5592 5582 5573 5565 5557 5549 5542 5536